Weather History for Watford City, ND

Change the Weather History Date:

Wednesday, April 9, 2014

  Actual Average (KISN) Record (KISN)
Temperature  
Mean Temperature 52 °F 41 °F  
Max Temperature 68 °F 54 °F 84 °F (1910)
Min Temperature 35 °F 27 °F 9 °F (1997)
Degree Days  
Heating Degree Days 12 24  
Month to date heating degree days 235  
Since 1 July heating degree days 8110  
Cooling Degree Days 0 0  
Month to date cooling degree days 0  
Year to date cooling degree days 0  
Growing Degree Days 2 (Base 50)    
Moisture  
Dew Point 31 °F    
Average Humidity 53    
Maximum Humidity 75    
Minimum Humidity 26    
Precipitation  
Precipitation 0.00 in 0.03 in 0.96 in (1922)
Month to date precipitation 0.25  
Year to date precipitation 1.94  
Sea Level Pressure  
Sea Level Pressure 29.64 in    
Wind  
Wind Speed 13 mph (West)    
Max Wind Speed 30 mph    
Max Gust Speed 40 mph    
Visibility 10 miles    
Events      
T = Trace of Precipitation, MM = Missing Value Source: NWS Daily Summary

Daily Weather History Graph

Daily Weather History Graph

Search for Another Location

Airport:

Trip Planner

Search our weather history database for the weather conditions in past years. The results will help you decide how hot, cold, wet, or windy it might be!

Date:

Astronomy

Apr. 09, 2014 Rise Set
Actual Time 7:15 AM CDT 8:34 PM CDT
Civil Twilight 6:43 AM CDT 9:06 PM CDT
Nautical Twilight 6:05 AM CDT 9:45 PM CDT
Astronomical Twilight 5:23 AM CDT 10:26 PM CDT
Moon 3:03 PM CDT (4/9) 4:28 AM CDT (4/9)
Length of Visible Light 14h 23m
Length of Day
13h 19m
Waxing Gibbous, 72% of the Moon is Illuminated
Apr 9
Waxing Gibbous
Apr 15
Full
Apr 22
Last Quarter
Apr 29
New
May 6
First Quarter

Hourly Weather History & Observations

Time (CDT) Temp. Windchill Dew Point Humidity Pressure Visibility Wind Dir Wind Speed Gust Speed Precip Events Conditions
12:15 AM 39.2 °F 33.0 °F 32.0 °F 75% 29.68 in 10.0 mi SW 9.2 mph - N/A   Clear
12:35 AM 41.0 °F 35.2 °F 32.0 °F 70% 29.67 in 10.0 mi SW 9.2 mph - N/A   Clear
12:55 AM 41.0 °F 35.2 °F 32.0 °F 70% 29.67 in 10.0 mi SW 9.2 mph - N/A   Clear
1:15 AM 39.2 °F 33.0 °F 32.0 °F 75% 29.67 in 10.0 mi SW 9.2 mph - N/A   Clear
1:35 AM 39.2 °F 33.0 °F 32.0 °F 75% 29.67 in 10.0 mi SW 9.2 mph - N/A   Clear
1:55 AM 39.2 °F 33.6 °F 32.0 °F 75% 29.66 in 10.0 mi WSW 8.1 mph - N/A   Clear
2:15 AM 39.2 °F 33.0 °F 32.0 °F 75% 29.66 in 10.0 mi SW 9.2 mph - N/A   Clear
2:35 AM 39.2 °F 32.5 °F 32.0 °F 75% 29.65 in 10.0 mi SW 10.4 mph - N/A   Clear
2:55 AM 39.2 °F 32.0 °F 32.0 °F 75% 29.65 in 10.0 mi SW 11.5 mph - N/A   Clear
3:15 AM 39.2 °F 32.5 °F 32.0 °F 75% 29.64 in 10.0 mi SW 10.4 mph - N/A   Clear
3:35 AM 39.2 °F 32.0 °F 32.0 °F 75% 29.64 in 10.0 mi SW 11.5 mph - N/A   Clear
3:55 AM 39.2 °F 32.5 °F 32.0 °F 75% 29.63 in 10.0 mi SW 10.4 mph - N/A   Clear
4:15 AM 39.2 °F 33.0 °F 32.0 °F 75% 29.64 in 10.0 mi WSW 9.2 mph - N/A   Clear
4:35 AM 39.2 °F 32.5 °F 32.0 °F 75% 29.63 in 10.0 mi SW 10.4 mph - N/A   Clear
4:55 AM 39.2 °F 32.5 °F 32.0 °F 75% 29.62 in 10.0 mi SW 10.4 mph - N/A   Clear
5:15 AM 39.2 °F 32.5 °F 32.0 °F 75% 29.62 in 10.0 mi SW 10.4 mph - N/A   Clear
5:35 AM 39.2 °F 32.0 °F 32.0 °F 75% 29.61 in 10.0 mi SW 11.5 mph - N/A   Clear
5:55 AM 39.2 °F 32.0 °F 32.0 °F 75% 29.61 in 10.0 mi SW 11.5 mph - N/A   Clear
6:15 AM 39.2 °F 31.6 °F 32.0 °F 75% 29.60 in 10.0 mi SW 12.7 mph - N/A   Clear
6:35 AM 39.2 °F 32.0 °F 32.0 °F 75% 29.60 in 10.0 mi SW 11.5 mph - N/A   Clear
6:55 AM 39.2 °F 31.6 °F 32.0 °F 75% 29.60 in 10.0 mi SW 12.7 mph - N/A   Clear
7:15 AM 41.0 °F 34.7 °F 32.0 °F 70% 29.61 in 10.0 mi SW 10.4 mph - N/A   Clear
7:35 AM 39.2 °F 33.0 °F 32.0 °F 75% 29.60 in 10.0 mi WSW 9.2 mph - N/A   Clear
7:55 AM 39.2 °F 33.0 °F 32.0 °F 75% 29.60 in 10.0 mi SW 9.2 mph - N/A   Clear
8:15 AM 39.2 °F 32.5 °F 32.0 °F 75% 29.59 in 10.0 mi SW 10.4 mph - N/A   Clear
8:35 AM 44.6 °F 39.7 °F 32.0 °F 61% 29.59 in 10.0 mi WSW 9.2 mph - N/A   Clear
8:55 AM 46.4 °F 42.9 °F 32.0 °F 57% 29.58 in 10.0 mi SW 6.9 mph - N/A   Clear
9:15 AM 50.0 °F - 33.8 °F 54% 29.57 in 10.0 mi WSW 8.1 mph - N/A   Clear
9:35 AM 53.6 °F - 32.0 °F 44% 29.57 in 10.0 mi SW 16.1 mph - N/A   Clear
9:55 AM 55.4 °F - 33.8 °F 44% 29.56 in 10.0 mi SW 15.0 mph 19.6 mph N/A   Clear
10:15 AM 55.4 °F - 33.8 °F 44% 29.54 in 10.0 mi WSW 12.7 mph - N/A   Clear
10:55 AM 62.6 °F - 35.6 °F 37% 29.54 in 10.0 mi WSW 16.1 mph 21.9 mph N/A   Clear
11:15 AM 64.4 °F - 32.0 °F 30% 29.53 in 7.0 mi West 18.4 mph 25.3 mph N/A   Clear
11:35 AM 66.2 °F - 32.0 °F 28% 29.53 in 9.0 mi West 20.7 mph 27.6 mph N/A   Clear
11:55 AM 68.0 °F - 33.8 °F 28% 29.53 in 10.0 mi West 21.9 mph 28.8 mph N/A   Clear
12:15 PM 68.0 °F - 32.0 °F 26% 29.53 in 10.0 mi West 20.7 mph 26.5 mph N/A   Clear
12:35 PM 68.0 °F - 32.0 °F 26% 29.53 in 10.0 mi WNW 20.7 mph 31.1 mph N/A   Clear
12:55 PM 68.0 °F - 32.0 °F 26% 29.54 in 10.0 mi WNW 25.3 mph 34.5 mph N/A   Clear
1:15 PM 66.2 °F - 32.0 °F 28% 29.55 in 10.0 mi NW 21.9 mph 40.3 mph N/A   Clear
1:35 PM 66.2 °F - 32.0 °F 28% 29.55 in 10.0 mi WNW 27.6 mph 38.0 mph N/A   Clear
1:55 PM 66.2 °F - 32.0 °F 28% 29.55 in 10.0 mi WNW 23.0 mph 31.1 mph N/A   Clear
2:15 PM 62.6 °F - 35.6 °F 37% 29.58 in 10.0 mi NNW 29.9 mph 39.1 mph N/A   Partly Cloudy
2:35 PM 59.0 °F - 33.8 °F 39% 29.60 in 10.0 mi NNW 28.8 mph 36.8 mph N/A   Clear
2:55 PM 55.4 °F - 32.0 °F 41% 29.62 in 10.0 mi NNW 24.2 mph 38.0 mph N/A   Clear
3:15 PM 55.4 °F - 32.0 °F 41% 29.63 in 10.0 mi NW 19.6 mph 28.8 mph N/A   Scattered Clouds
3:35 PM 55.4 °F - 32.0 °F 41% 29.64 in 10.0 mi NW 17.3 mph 34.5 mph N/A   Partly Cloudy
3:55 PM 55.4 °F - 32.0 °F 41% 29.65 in 10.0 mi NW 20.7 mph 26.5 mph N/A   Scattered Clouds
4:15 PM 55.4 °F - 32.0 °F 41% 29.65 in 10.0 mi NW 20.7 mph 27.6 mph N/A   Partly Cloudy
4:35 PM 55.4 °F - 32.0 °F 41% 29.65 in 10.0 mi NW 20.7 mph 31.1 mph N/A   Partly Cloudy
4:55 PM 53.6 °F - 32.0 °F 44% 29.66 in 10.0 mi NW 21.9 mph 32.2 mph N/A   Scattered Clouds
5:15 PM 55.4 °F - 32.0 °F 41% 29.66 in 10.0 mi NW 17.3 mph 24.2 mph N/A   Scattered Clouds
5:35 PM 55.4 °F - 32.0 °F 41% 29.66 in 10.0 mi NW 21.9 mph 29.9 mph N/A   Scattered Clouds
5:55 PM 55.4 °F - 32.0 °F 41% 29.67 in 10.0 mi NW 21.9 mph 29.9 mph N/A   Partly Cloudy
6:15 PM 53.6 °F - 30.2 °F 41% 29.68 in 10.0 mi NW 19.6 mph 31.1 mph N/A   Partly Cloudy
6:35 PM 53.6 °F - 30.2 °F 41% 29.69 in 10.0 mi NW 23.0 mph 26.5 mph N/A   Clear
6:55 PM 51.8 °F - 28.4 °F 41% 29.69 in 10.0 mi NW 17.3 mph 25.3 mph N/A   Clear
7:15 PM 51.8 °F - 26.6 °F 38% 29.70 in 10.0 mi NW 19.6 mph 27.6 mph N/A   Clear
7:35 PM 50.0 °F - 24.8 °F 37% 29.71 in 10.0 mi NW 16.1 mph 25.3 mph N/A   Partly Cloudy
7:55 PM 50.0 °F - 24.8 °F 37% 29.72 in 10.0 mi NW 15.0 mph 19.6 mph N/A   Partly Cloudy
8:15 PM 50.0 °F - 24.8 °F 37% 29.72 in 10.0 mi NW 13.8 mph 18.4 mph N/A   Partly Cloudy
8:35 PM 48.2 °F - 23.0 °F 37% 29.73 in 10.0 mi NW 11.5 mph - N/A   Clear
8:55 PM 46.4 °F 41.9 °F 23.0 °F 40% 29.73 in 10.0 mi WNW 9.2 mph - N/A   Clear
9:15 PM 46.4 °F 41.9 °F 24.8 °F 43% 29.74 in 10.0 mi WNW 9.2 mph - N/A   Clear
9:35 PM 44.6 °F 39.7 °F 24.8 °F 46% 29.75 in 10.0 mi WNW 9.2 mph - N/A   Clear
9:55 PM 42.8 °F 38.0 °F 24.8 °F 49% 29.76 in 10.0 mi West 8.1 mph - N/A   Clear
10:15 PM 41.0 °F 35.2 °F 24.8 °F 53% 29.76 in 10.0 mi West 9.2 mph - N/A   Clear
10:35 PM 42.8 °F 37.5 °F 24.8 °F 49% 29.77 in 10.0 mi West 9.2 mph - N/A   Clear
10:55 PM 39.2 °F 33.6 °F 24.8 °F 56% 29.78 in 10.0 mi West 8.1 mph - N/A   Clear
11:15 PM 39.2 °F 34.2 °F 24.8 °F 56% 29.78 in 10.0 mi WSW 6.9 mph - N/A   Clear
11:35 PM 37.4 °F 32.1 °F 23.0 °F 56% 29.78 in 10.0 mi West 6.9 mph - N/A   Clear
11:55 PM 35.6 °F 29.2 °F 23.0 °F 60% 29.79 in 10.0 mi WSW 8.1 mph - N/A   Clear